Flag for India Weather past 2 weeks in Nagaur, Rajasthan, India

Now
84 °F

Passing clouds.


Feels Like: 92 °F
Forecast: 82 / 98 °F
Wind: 3 mph from North

Location: Jaipur / Sanganer

Current Time: Jul 8, 2015 at 4:05:50 AM

Latest Report: Jul 8, 2015 at 2:00 AM


Visibility: 2 mi

Pressure: 29.56 "Hg

Humidity: 74%

Dew point: 75 °F

Location of NagaurLocation

Historic Weather in Nagaur — Graph

°F

Nagaur temperature yesterday

Maximum temperature yesterday: 97 °F (at 1:00 PM)
Minimum temperature yesterday: 86 °F (at 5:30 AM)
Average temperature yesterday: 90 °F

Past Weeks' High & Low Weather Summary

 TemperatureHumidityPressure
High102 °F (Jun 23, 3:00 PM)100% (Jun 25, 3:00 AM)29.77 "Hg (Jun 25, 3:00 AM)
Low75 °F (Jun 29, 9:00 PM)27% (Jun 28, 4:00 PM)29.39 "Hg (Jun 25, 3:00 AM)
Average88 °F64%29.59 "Hg
* Reported Jun 23 2:00 AM — Jul 8 2:00 AM, Nagaur, Weather by CustomWeather, © 2015

Note: Actual official high and low records may vary slightly from our data, if they occured in-between our weather recording intervals... More about our weather records

Advertising

Nagaur weather history for previous 24 hours

 ConditionsComfort  
Time TempWeatherWind HumidityBarometerVisibility
2:00 AM
Wed, Jul 8
84 °FPassing clouds.3 mph74%29.56 "Hg2 mi
12:00 AM86 °FPassing clouds.6 mph70%29.56 "Hg2 mi
11:00 PM
Tue, Jul 7
86 °FPassing clouds.8 mph66%29.56 "Hg2 mi
10:00 PM88 °FPassing clouds.9 mph62%29.56 "Hg2 mi
9:00 PM90 °FPassing clouds.6 mph59%29.53 "Hg2 mi
8:00 PM91 °FPassing clouds.9 mph46%29.50 "Hg2 mi
7:00 PM93 °FScattered clouds.7 mph49%29.47 "Hg2 mi
6:00 PM95 °FScattered clouds.8 mph44%29.47 "Hg2 mi
5:00 PM97 °FScattered clouds.8 mph44%29.47 "Hg2 mi
4:00 PM95 °FScattered clouds.15 mph47%29.50 "HgN/A
2:00 PM97 °FScattered clouds.9 mph56%29.56 "Hg2 mi
1:00 PM97 °FScattered clouds.9 mph56%29.56 "Hg2 mi
12:00 PM93 °FScattered clouds.9 mph67%29.59 "Hg2 mi
11:00 AM90 °FBroken clouds.10 mph67%29.59 "Hg2 mi
9:00 AM88 °FPartly sunny.9 mph62%29.56 "Hg1 mi
8:00 AM86 °FScattered clouds.7 mph66%29.56 "Hg1 mi
7:00 AM86 °FScattered clouds.6 mph66%29.53 "Hg1 mi
6:00 AM86 °FPassing clouds.3 mph66%29.53 "Hg1 mi
5:30 AM86 °FPartly cloudy.6 mph66%29.50 "Hg1 mi
5:00 AM88 °FPartly cloudy.7 mph70%29.50 "Hg1 mi
4:00 AM88 °FPartly cloudy.8 mph70%29.50 "Hg1 mi
Weather by CustomWeather, © 2015

See weather overviewHow to use our weather pages